コマス・ソラ彗星

32P/Comas Sola (2024)

English version
Home page
Updated on February 27, 2024

---------------------------------------------------------------------

・ プロフィール

・ 写真集

・ 軌道要素

Epoch 2023 Sept. 13.0 TT = JDT 2460200.5
T 2024 Apr. 20.55384 TT                                 Rudenko
q   2.0243630            (2000.0)            P               Q
n   0.10124753     Peri.   54.66582     -0.31886795     -0.93735737
a   4.5591067      Node    54.53019     +0.80407356     -0.34590358
e   0.5559738      Incl.    9.91988     +0.50178575     -0.04137482
P   9.73
>From 4384 observations 2004 July 20-2024 Jan. 25, mean residual 0".9.
     Nongravitational parameters A1 = +0.15, A2 = -0.1033.

・ 星図

・ 光度変化

        m1 = 8.0 + 5 logΔ + 14.0 log r

---------------------------------------------------------------------

軌道要素はM.P.E.C. 2024-B140に掲載されたものです。
星図はステラナビゲータ Ver.10 (アストロアーツ) で作成したものです。
光度グラフはComet for Windowsで作成したものです。

---------------------------------------------------------------------

Copyright(C) Seiichi Yoshida (comet@aerith.net). All rights reserved.